Data supplied by UK-AIR on 3/6/2016
All Data GMT hour ending 
Status: R =Ratified P=Provisional,P*=As supplied
,,Ballymena Ballykeel,,,,,,,,,,,,,,,,,,,,,,,
Date,time,"Sulphur dioxide",status,unit,"Black carbon",status,unit,"UV Particulate Matter",status,unit
 
01-01-2015,01:00,4.12173,R,ugm-3,0.60,R,ugm-3,0.50,R,ugm-3
01-01-2015,02:00,3.06979,R,ugm-3,0.70,R,ugm-3,1.10,R,ugm-3
01-01-2015,03:00,2.84783,R,ugm-3,0.30,R,ugm-3,0.30,R,ugm-3
01-01-2015,04:00,2.42408,R,ugm-3,0.20,R,ugm-3,0.10,R,ugm-3
01-01-2015,05:00,3.57492,R,ugm-3,0.20,R,ugm-3,0.00,R,ugm-3
01-01-2015,06:00,2.72676,R,ugm-3,0.20,R,ugm-3,0.10,R,ugm-3
01-01-2015,07:00,2.96890,R,ugm-3,0.20,R,ugm-3,0.00,R,ugm-3
01-01-2015,08:00,2.18194,R,ugm-3,0.10,R,ugm-3,0.00,R,ugm-3
01-01-2015,09:00,1.75819,R,ugm-3,0.30,R,ugm-3,0.60,R,ugm-3
01-01-2015,10:00,2.48462,R,ugm-3,0.40,R,ugm-3,0.30,R,ugm-3
01-01-2015,11:00,1.87926,R,ugm-3,0.40,R,ugm-3,0.50,R,ugm-3
01-01-2015,12:00,1.57658,R,ugm-3,0.60,R,ugm-3,1.00,R,ugm-3
01-01-2015,13:00,1.69765,R,ugm-3,0.70,R,ugm-3,0.70,R,ugm-3
01-01-2015,14:00,1.63712,R,ugm-3,0.90,R,ugm-3,0.70,R,ugm-3
01-01-2015,15:00,1.81873,R,ugm-3,1.30,R,ugm-3,1.20,R,ugm-3
01-01-2015,16:00,1.87926,R,ugm-3,1.10,R,ugm-3,1.00,R,ugm-3
01-01-2015,17:00,1.69765,R,ugm-3,1.20,R,ugm-3,0.90,R,ugm-3
01-01-2015,18:00,2.12140,R,ugm-3,1.60,R,ugm-3,2.30,R,ugm-3
01-01-2015,19:00,2.30301,R,ugm-3,1.80,R,ugm-3,1.90,R,ugm-3
01-01-2015,20:00,1.75819,R,ugm-3,1.40,R,ugm-3,1.00,R,ugm-3
01-01-2015,21:00,1.69765,R,ugm-3,0.90,R,ugm-3,0.90,R,ugm-3
01-01-2015,22:00,0.96923,R,ugm-3,0.60,R,ugm-3,0.30,R,ugm-3
01-01-2015,23:00,0.60536,R,ugm-3,0.30,R,ugm-3,0.10,R,ugm-3
01-01-2015,24:00,1.09097,R,ugm-3,0.10,R,ugm-3,0.30,R,ugm-3
02-01-2015,01:00,0.81246,R,ugm-3,0.10,R,ugm-3,0.10,R,ugm-3
02-01-2015,02:00,0.97389,R,ugm-3,0.20,R,ugm-3,0.10,R,ugm-3
02-01-2015,03:00,0.67055,R,ugm-3,0.10,R,ugm-3,0.00,R,ugm-3
02-01-2015,04:00,0.30534,R,ugm-3,0.20,R,ugm-3,0.00,R,ugm-3
02-01-2015,05:00,0.48695,R,ugm-3,0.10,R,ugm-3,0.00,R,ugm-3
02-01-2015,06:00,0.66988,R,ugm-3,0.10,R,ugm-3,-0.10,R,ugm-3
02-01-2015,07:00,0.91335,R,ugm-3,0.10,R,ugm-3,0.00,R,ugm-3
02-01-2015,08:00,0.48761,R,ugm-3,0.00,R,ugm-3,0.10,R,ugm-3
02-01-2015,09:00,0.42641,R,ugm-3,0.30,R,ugm-3,0.20,R,ugm-3
02-01-2015,10:00,0.97456,R,ugm-3,0.60,R,ugm-3,1.20,R,ugm-3
02-01-2015,11:00,1.40163,R,ugm-3,0.90,R,ugm-3,0.60,R,ugm-3
02-01-2015,12:00,1.03509,R,ugm-3,0.50,R,ugm-3,0.50,R,ugm-3
02-01-2015,13:00,1.76750,R,ugm-3,2.00,R,ugm-3,3.50,R,ugm-3
02-01-2015,14:00,1.82870,R,ugm-3,0.60,R,ugm-3,0.80,R,ugm-3
02-01-2015,15:00,3.29020,R,ugm-3,2.00,R,ugm-3,1.60,R,ugm-3
02-01-2015,16:00,3.41194,R,ugm-3,2.10,R,ugm-3,2.30,R,ugm-3
02-01-2015,17:00,3.22967,R,ugm-3,3.30,R,ugm-3,2.10,R,ugm-3
02-01-2015,18:00,4.81357,R,ugm-3,3.90,R,ugm-3,4.30,R,ugm-3
02-01-2015,19:00,4.38716,R,ugm-3,3.10,R,ugm-3,2.80,R,ugm-3
02-01-2015,20:00,4.38716,R,ugm-3,2.80,R,ugm-3,2.40,R,ugm-3
02-01-2015,21:00,4.32662,R,ugm-3,2.50,R,ugm-3,2.00,R,ugm-3
02-01-2015,22:00,3.65608,R,ugm-3,1.50,R,ugm-3,1.70,R,ugm-3
02-01-2015,23:00,3.04740,R,ugm-3,0.60,R,ugm-3,0.80,R,ugm-3
02-01-2015,24:00,1.94911,R,ugm-3,0.90,R,ugm-3,0.70,R,ugm-3
03-01-2015,01:00,1.63468,R,ugm-3,0.50,R,ugm-3,0.30,R,ugm-3
03-01-2015,02:00,1.47059,R,ugm-3,0.30,R,ugm-3,0.30,R,ugm-3
03-01-2015,03:00,2.20522,R,ugm-3,0.30,R,ugm-3,0.20,R,ugm-3
03-01-2015,04:00,1.28655,R,ugm-3,0.20,R,ugm-3,0.10,R,ugm-3
03-01-2015,05:00,1.16348,R,ugm-3,0.20,R,ugm-3,0.20,R,ugm-3
03-01-2015,06:00,1.89988,R,ugm-3,0.20,R,ugm-3,0.20,R,ugm-3
03-01-2015,07:00,2.51189,R,ugm-3,0.40,R,ugm-3,0.20,R,ugm-3
03-01-2015,08:00,3.12456,R,ugm-3,0.30,R,ugm-3,0.20,R,ugm-3
03-01-2015,09:00,3.73723,R,ugm-3,0.60,R,ugm-3,0.20,R,ugm-3
03-01-2015,10:00,7.16847,R,ugm-3,1.40,R,ugm-3,3.50,R,ugm-3
03-01-2015,11:00,1.89988,R,ugm-3,1.70,R,ugm-3,1.20,R,ugm-3
03-01-2015,12:00,1.65442,R,ugm-3,1.40,R,ugm-3,0.70,R,ugm-3
03-01-2015,13:00,1.40895,R,ugm-3,1.40,R,ugm-3,0.80,R,ugm-3
03-01-2015,14:00,2.26709,R,ugm-3,1.60,R,ugm-3,1.60,R,ugm-3
03-01-2015,15:00,1.40961,R,ugm-3,0.80,R,ugm-3,0.30,R,ugm-3
03-01-2015,16:00,2.26709,R,ugm-3,2.70,R,ugm-3,4.60,R,ugm-3
03-01-2015,17:00,5.39165,R,ugm-3,5.40,R,ugm-3,4.20,R,ugm-3
03-01-2015,18:00,13.84599,R,ugm-3,10.40,R,ugm-3,6.20,R,ugm-3
03-01-2015,19:00,7.47513,R,ugm-3,7.60,R,ugm-3,4.20,R,ugm-3
03-01-2015,20:00,9.25128,R,ugm-3,8.10,R,ugm-3,5.70,R,ugm-3
03-01-2015,21:00,7.78114,R,ugm-3,7.80,R,ugm-3,6.50,R,ugm-3
03-01-2015,22:00,10.53783,R,ugm-3,9.50,R,ugm-3,8.10,R,ugm-3
03-01-2015,23:00,7.90354,R,ugm-3,5.70,R,ugm-3,3.90,R,ugm-3
03-01-2015,24:00,3.98204,R,ugm-3,6.90,R,ugm-3,5.20,R,ugm-3
04-01-2015,01:00,3.36781,R,ugm-3,4.90,R,ugm-3,3.10,R,ugm-3
04-01-2015,02:00,4.27075,R,ugm-3,4.20,R,ugm-3,2.80,R,ugm-3
04-01-2015,03:00,6.22185,R,ugm-3,3.40,R,ugm-3,2.30,R,ugm-3
04-01-2015,04:00,4.00399,R,ugm-3,3.40,R,ugm-3,2.30,R,ugm-3
04-01-2015,05:00,2.95693,R,ugm-3,2.60,R,ugm-3,1.70,R,ugm-3
04-01-2015,06:00,0.86213,R,ugm-3,0.70,R,ugm-3,0.30,R,ugm-3
04-01-2015,07:00,0.49293,R,ugm-3,0.60,R,ugm-3,0.30,R,ugm-3
04-01-2015,08:00,0.73907,R,ugm-3,0.60,R,ugm-3,0.40,R,ugm-3
04-01-2015,09:00,2.15599,R,ugm-3,1.10,R,ugm-3,1.80,R,ugm-3
04-01-2015,10:00,3.01813,R,ugm-3,1.10,R,ugm-3,1.60,R,ugm-3
04-01-2015,11:00,2.64893,R,ugm-3,0.50,R,ugm-3,0.60,R,ugm-3
04-01-2015,12:00,2.40213,R,ugm-3,0.70,R,ugm-3,0.50,R,ugm-3
04-01-2015,13:00,3.20306,R,ugm-3,1.60,R,ugm-3,0.90,R,ugm-3
04-01-2015,14:00,3.94279,R,ugm-3,1.90,R,ugm-3,2.10,R,ugm-3
04-01-2015,15:00,4.31199,R,ugm-3,2.20,R,ugm-3,2.30,R,ugm-3
04-01-2015,16:00,4.74305,R,ugm-3,2.40,R,ugm-3,2.00,R,ugm-3
04-01-2015,17:00,4.49692,R,ugm-3,2.00,R,ugm-3,1.40,R,ugm-3
04-01-2015,18:00,5.85265,R,ugm-3,1.90,R,ugm-3,2.20,R,ugm-3
04-01-2015,19:00,9.42491,R,ugm-3,8.20,R,ugm-3,17.00,R,ugm-3
04-01-2015,20:00,7.20705,R,ugm-3,2.20,R,ugm-3,5.30,R,ugm-3
04-01-2015,21:00,8.87011,R,ugm-3,4.10,R,ugm-3,8.70,R,ugm-3
04-01-2015,22:00,7.26958,R,ugm-3,3.30,R,ugm-3,3.40,R,ugm-3
04-01-2015,23:00,4.92799,R,ugm-3,1.00,R,ugm-3,1.10,R,ugm-3
04-01-2015,24:00,5.91385,R,ugm-3,0.80,R,ugm-3,1.40,R,ugm-3
05-01-2015,01:00,5.44952,R,ugm-3,1.00,R,ugm-3,2.30,R,ugm-3
05-01-2015,02:00,3.63302,R,ugm-3,0.60,R,ugm-3,0.70,R,ugm-3
05-01-2015,03:00,3.03409,R,ugm-3,0.60,R,ugm-3,0.20,R,ugm-3
05-01-2015,04:00,3.52968,R,ugm-3,0.50,R,ugm-3,0.10,R,ugm-3
05-01-2015,05:00,4.08781,R,ugm-3,0.30,R,ugm-3,0.10,R,ugm-3
05-01-2015,06:00,3.09596,R,ugm-3,0.40,R,ugm-3,0.10,R,ugm-3
05-01-2015,07:00,2.97223,R,ugm-3,0.40,R,ugm-3,0.10,R,ugm-3
05-01-2015,08:00,2.60103,R,ugm-3,0.60,R,ugm-3,0.10,R,ugm-3
05-01-2015,09:00,2.78663,R,ugm-3,0.90,R,ugm-3,0.20,R,ugm-3
05-01-2015,10:00,4.52087,R,ugm-3,1.00,R,ugm-3,0.70,R,ugm-3
05-01-2015,11:00,3.77781,R,ugm-3,1.40,R,ugm-3,1.70,R,ugm-3
05-01-2015,12:00,2.84849,R,ugm-3,1.10,R,ugm-3,0.70,R,ugm-3
05-01-2015,13:00,3.52902,R,ugm-3,1.10,R,ugm-3,1.60,R,ugm-3
05-01-2015,14:00,2.97223,R,ugm-3,1.00,R,ugm-3,1.00,R,ugm-3
05-01-2015,15:00,3.03409,R,ugm-3,0.70,R,ugm-3,0.80,R,ugm-3
05-01-2015,16:00,3.46715,R,ugm-3,1.00,R,ugm-3,0.40,R,ugm-3
05-01-2015,17:00,3.21969,R,ugm-3,1.70,R,ugm-3,1.70,R,ugm-3
05-01-2015,18:00,3.15782,R,ugm-3,1.70,R,ugm-3,0.90,R,ugm-3
05-01-2015,19:00,2.78663,R,ugm-3,1.30,R,ugm-3,0.90,R,ugm-3
05-01-2015,20:00,4.39714,R,ugm-3,2.10,R,ugm-3,1.90,R,ugm-3
05-01-2015,21:00,5.20273,R,ugm-3,1.10,R,ugm-3,4.10,R,ugm-3
05-01-2015,22:00,3.65342,R,ugm-3,0.70,R,ugm-3,1.00,R,ugm-3
05-01-2015,23:00,2.84849,R,ugm-3,0.60,R,ugm-3,0.30,R,ugm-3
05-01-2015,24:00,2.35357,R,ugm-3,0.50,R,ugm-3,0.10,R,ugm-3
06-01-2015,01:00,2.32651,R,ugm-3,0.50,R,ugm-3,0.10,R,ugm-3
06-01-2015,02:00,2.24314,R,ugm-3,0.30,R,ugm-3,0.10,R,ugm-3
06-01-2015,03:00,2.05754,R,ugm-3,0.30,R,ugm-3,0.10,R,ugm-3
06-01-2015,04:00,1.49609,R,ugm-3,0.10,R,ugm-3,0.10,R,ugm-3
06-01-2015,05:00,0.68518,R,ugm-3,0.00,R,ugm-3,0.00,R,ugm-3
06-01-2015,06:00,0.93531,R,ugm-3,0.00,R,ugm-3,0.10,R,ugm-3
06-01-2015,07:00,1.05970,R,ugm-3,0.30,R,ugm-3,-0.10,R,ugm-3
06-01-2015,08:00,1.62049,R,ugm-3,0.80,R,ugm-3,0.60,R,ugm-3
06-01-2015,09:00,2.68019,R,ugm-3,1.50,R,ugm-3,0.70,R,ugm-3
06-01-2015,10:00,3.30417,R,ugm-3,3.20,R,ugm-3,2.70,R,ugm-3
06-01-2015,11:00,3.05405,R,ugm-3,2.40,R,ugm-3,0.10,R,ugm-3
06-01-2015,12:00,2.18127,R,ugm-3,1.00,R,ugm-3,0.60,R,ugm-3
06-01-2015,13:00,1.68302,R,ugm-3,1.00,R,ugm-3,1.20,R,ugm-3
06-01-2015,14:00,1.87061,R,ugm-3,1.30,R,ugm-3,1.40,R,ugm-3
06-01-2015,15:00,2.55513,R,ugm-3,1.40,R,ugm-3,1.70,R,ugm-3
06-01-2015,16:00,3.36604,R,ugm-3,2.00,R,ugm-3,2.30,R,ugm-3
06-01-2015,17:00,4.17628,R,ugm-3,3.20,R,ugm-3,2.10,R,ugm-3
06-01-2015,18:00,6.73141,R,ugm-3,10.80,R,ugm-3,4.60,R,ugm-3
06-01-2015,19:00,5.23599,R,ugm-3,3.50,R,ugm-3,3.90,R,ugm-3
06-01-2015,20:00,5.11092,R,ugm-3,2.40,R,ugm-3,3.70,R,ugm-3
06-01-2015,21:00,4.30068,R,ugm-3,2.60,R,ugm-3,2.40,R,ugm-3
06-01-2015,22:00,4.17695,R,ugm-3,1.40,R,ugm-3,1.90,R,ugm-3
06-01-2015,23:00,3.24098,R,ugm-3,1.10,R,ugm-3,1.40,R,ugm-3
06-01-2015,24:00,2.99218,R,ugm-3,0.70,R,ugm-3,0.60,R,ugm-3
07-01-2015,01:00,2.42319,R,ugm-3,0.60,R,ugm-3,0.70,R,ugm-3
07-01-2015,02:00,2.08881,R,ugm-3,0.40,R,ugm-3,0.60,R,ugm-3
07-01-2015,03:00,2.06819,R,ugm-3,0.40,R,ugm-3,0.10,R,ugm-3
07-01-2015,04:00,1.87993,R,ugm-3,0.20,R,ugm-3,0.00,R,ugm-3
07-01-2015,05:00,1.50341,R,ugm-3,0.20,R,ugm-3,-0.10,R,ugm-3
07-01-2015,06:00,1.44088,R,ugm-3,0.10,R,ugm-3,-0.10,R,ugm-3
07-01-2015,07:00,1.44088,R,ugm-3,0.10,R,ugm-3,-0.10,R,ugm-3
07-01-2015,08:00,1.94312,R,ugm-3,0.50,R,ugm-3,0.70,R,ugm-3
07-01-2015,09:00,1.50341,R,ugm-3,0.40,R,ugm-3,0.30,R,ugm-3
07-01-2015,10:00,1.56661,R,ugm-3,0.40,R,ugm-3,0.60,R,ugm-3
07-01-2015,11:00,1.87993,R,ugm-3,0.70,R,ugm-3,0.80,R,ugm-3
07-01-2015,12:00,1.44088,R,ugm-3,0.50,R,ugm-3,0.50,R,ugm-3
07-01-2015,13:00,1.87993,R,ugm-3,0.70,R,ugm-3,0.90,R,ugm-3
07-01-2015,14:00,2.25644,R,ugm-3,1.00,R,ugm-3,0.90,R,ugm-3
07-01-2015,15:00,2.75669,R,ugm-3,0.90,R,ugm-3,1.00,R,ugm-3
07-01-2015,16:00,2.50657,R,ugm-3,1.20,R,ugm-3,0.70,R,ugm-3
07-01-2015,17:00,,,,1.60,R,ugm-3,2.00,R,ugm-3
07-01-2015,18:00,5.45152,R,ugm-3,3.90,R,ugm-3,2.30,R,ugm-3
07-01-2015,19:00,6.89306,R,ugm-3,2.50,R,ugm-3,2.70,R,ugm-3
07-01-2015,20:00,6.95559,R,ugm-3,3.00,R,ugm-3,3.30,R,ugm-3
07-01-2015,21:00,6.26642,R,ugm-3,3.20,R,ugm-3,3.10,R,ugm-3
07-01-2015,22:00,5.32646,R,ugm-3,1.60,R,ugm-3,1.60,R,ugm-3
07-01-2015,23:00,4.00998,R,ugm-3,1.40,R,ugm-3,1.30,R,ugm-3
07-01-2015,24:00,3.38400,R,ugm-3,0.60,R,ugm-3,0.70,R,ugm-3
08-01-2015,01:00,2.67066,R,ugm-3,0.40,R,ugm-3,0.10,R,ugm-3
08-01-2015,02:00,1.83691,R,ugm-3,0.20,R,ugm-3,0.10,R,ugm-3
08-01-2015,03:00,1.44021,R,ugm-3,0.10,R,ugm-3,0.00,R,ugm-3
08-01-2015,04:00,1.06370,R,ugm-3,0.10,R,ugm-3,0.00,R,ugm-3
08-01-2015,05:00,2.62963,R,ugm-3,0.10,R,ugm-3,0.00,R,ugm-3
08-01-2015,06:00,2.62963,R,ugm-3,0.10,R,ugm-3,0.00,R,ugm-3
08-01-2015,07:00,1.62781,R,ugm-3,0.10,R,ugm-3,0.10,R,ugm-3
08-01-2015,08:00,0.93797,R,ugm-3,0.30,R,ugm-3,0.20,R,ugm-3
08-01-2015,09:00,0.50025,R,ugm-3,0.30,R,ugm-3,0.20,R,ugm-3
08-01-2015,10:00,5.50873,R,ugm-3,2.10,R,ugm-3,3.00,R,ugm-3
08-01-2015,11:00,3.25495,R,ugm-3,1.10,R,ugm-3,1.40,R,ugm-3
08-01-2015,12:00,4.25678,R,ugm-3,1.30,R,ugm-3,1.80,R,ugm-3
08-01-2015,13:00,4.94528,R,ugm-3,1.10,R,ugm-3,1.00,R,ugm-3
08-01-2015,14:00,5.57059,R,ugm-3,2.50,R,ugm-3,1.90,R,ugm-3
08-01-2015,15:00,4.19424,R,ugm-3,0.50,R,ugm-3,0.70,R,ugm-3
08-01-2015,16:00,5.19541,R,ugm-3,3.00,R,ugm-3,2.70,R,ugm-3
08-01-2015,17:00,4.13238,R,ugm-3,2.10,R,ugm-3,2.10,R,ugm-3
08-01-2015,18:00,3.94478,R,ugm-3,1.50,R,ugm-3,1.00,R,ugm-3
08-01-2015,19:00,3.75586,R,ugm-3,1.30,R,ugm-3,1.20,R,ugm-3
08-01-2015,20:00,4.25744,R,ugm-3,1.90,R,ugm-3,1.30,R,ugm-3
08-01-2015,21:00,2.50391,R,ugm-3,0.80,R,ugm-3,0.80,R,ugm-3
08-01-2015,22:00,2.31631,R,ugm-3,0.70,R,ugm-3,0.70,R,ugm-3
08-01-2015,23:00,2.69150,R,ugm-3,0.70,R,ugm-3,0.30,R,ugm-3
08-01-2015,24:00,3.38001,R,ugm-3,0.50,R,ugm-3,0.10,R,ugm-3
09-01-2015,01:00,2.33450,R,ugm-3,0.10,R,ugm-3,0.00,R,ugm-3
09-01-2015,02:00,1.00050,R,ugm-3,0.10,R,ugm-3,-0.10,R,ugm-3
09-01-2015,03:00,1.00050,R,ugm-3,0.10,R,ugm-3,0.00,R,ugm-3
09-01-2015,04:00,0.81291,R,ugm-3,0.10,R,ugm-3,0.00,R,ugm-3
09-01-2015,05:00,0.56278,R,ugm-3,0.10,R,ugm-3,-0.10,R,ugm-3
09-01-2015,06:00,0.31266,R,ugm-3,0.10,R,ugm-3,0.00,R,ugm-3
09-01-2015,07:00,0.93797,R,ugm-3,0.10,R,ugm-3,0.10,R,ugm-3
09-01-2015,08:00,0.68784,R,ugm-3,0.30,R,ugm-3,0.40,R,ugm-3
09-01-2015,09:00,0.93797,R,ugm-3,0.40,R,ugm-3,0.20,R,ugm-3
09-01-2015,10:00,1.00050,R,ugm-3,0.60,R,ugm-3,0.60,R,ugm-3
09-01-2015,11:00,1.62581,R,ugm-3,1.40,R,ugm-3,1.40,R,ugm-3
09-01-2015,12:00,2.37618,R,ugm-3,1.50,R,ugm-3,1.90,R,ugm-3
09-01-2015,13:00,2.43872,R,ugm-3,1.20,R,ugm-3,0.80,R,ugm-3
09-01-2015,14:00,1.56328,R,ugm-3,1.10,R,ugm-3,1.30,R,ugm-3
09-01-2015,15:00,1.75087,R,ugm-3,1.50,R,ugm-3,1.40,R,ugm-3
09-01-2015,16:00,2.87643,R,ugm-3,3.30,R,ugm-3,2.80,R,ugm-3
09-01-2015,17:00,2.43872,R,ugm-3,1.30,R,ugm-3,1.70,R,ugm-3
09-01-2015,18:00,2.62631,R,ugm-3,1.30,R,ugm-3,1.00,R,ugm-3
09-01-2015,19:00,3.68934,R,ugm-3,1.90,R,ugm-3,2.10,R,ugm-3
09-01-2015,20:00,3.81440,R,ugm-3,3.00,R,ugm-3,2.20,R,ugm-3
09-01-2015,21:00,3.31415,R,ugm-3,1.20,R,ugm-3,1.60,R,ugm-3
09-01-2015,22:00,2.56378,R,ugm-3,0.80,R,ugm-3,1.90,R,ugm-3
09-01-2015,23:00,2.43872,R,ugm-3,0.80,R,ugm-3,0.80,R,ugm-3
09-01-2015,24:00,1.50075,R,ugm-3,0.10,R,ugm-3,0.60,R,ugm-3
10-01-2015,01:00,1.33134,R,ugm-3,0.30,R,ugm-3,0.20,R,ugm-3
10-01-2015,02:00,0.99784,R,ugm-3,0.00,R,ugm-3,0.10,R,ugm-3
10-01-2015,03:00,0.99784,R,ugm-3,0.00,R,ugm-3,0.00,R,ugm-3
10-01-2015,04:00,0.50025,R,ugm-3,0.00,R,ugm-3,0.00,R,ugm-3
10-01-2015,05:00,0.50025,R,ugm-3,0.00,R,ugm-3,0.00,R,ugm-3
10-01-2015,06:00,0.25013,R,ugm-3,0.00,R,ugm-3,0.00,R,ugm-3
10-01-2015,07:00,0.31266,R,ugm-3,0.10,R,ugm-3,-0.10,R,ugm-3
10-01-2015,08:00,0.25013,R,ugm-3,0.10,R,ugm-3,0.00,R,ugm-3
10-01-2015,09:00,0.37452,R,ugm-3,0.10,R,ugm-3,0.00,R,ugm-3
10-01-2015,10:00,0.87278,R,ugm-3,0.70,R,ugm-3,0.50,R,ugm-3
10-01-2015,11:00,0.81158,R,ugm-3,0.60,R,ugm-3,0.40,R,ugm-3
10-01-2015,12:00,0.99784,R,ugm-3,0.40,R,ugm-3,0.60,R,ugm-3
10-01-2015,13:00,1.24796,R,ugm-3,0.80,R,ugm-3,0.50,R,ugm-3
10-01-2015,14:00,1.18543,R,ugm-3,0.70,R,ugm-3,0.70,R,ugm-3
10-01-2015,15:00,1.55995,R,ugm-3,0.90,R,ugm-3,0.80,R,ugm-3
10-01-2015,16:00,1.49809,R,ugm-3,1.10,R,ugm-3,1.80,R,ugm-3
10-01-2015,17:00,3.55629,R,ugm-3,3.10,R,ugm-3,4.40,R,ugm-3
10-01-2015,18:00,4.11774,R,ugm-3,2.40,R,ugm-3,3.30,R,ugm-3
10-01-2015,19:00,4.67919,R,ugm-3,3.00,R,ugm-3,5.00,R,ugm-3
10-01-2015,20:00,5.61583,R,ugm-3,2.70,R,ugm-3,4.20,R,ugm-3
10-01-2015,21:00,5.80276,R,ugm-3,3.90,R,ugm-3,5.80,R,ugm-3
10-01-2015,22:00,5.11691,R,ugm-3,1.70,R,ugm-3,3.30,R,ugm-3
10-01-2015,23:00,2.37086,R,ugm-3,0.90,R,ugm-3,1.30,R,ugm-3
10-01-2015,24:00,2.74605,R,ugm-3,0.80,R,ugm-3,1.20,R,ugm-3
11-01-2015,01:00,2.32651,R,ugm-3,0.30,R,ugm-3,0.50,R,ugm-3
11-01-2015,02:00,2.41078,R,ugm-3,0.30,R,ugm-3,0.20,R,ugm-3
11-01-2015,03:00,1.43290,R,ugm-3,0.10,R,ugm-3,-0.10,R,ugm-3
11-01-2015,04:00,1.49543,R,ugm-3,0.10,R,ugm-3,-0.10,R,ugm-3
11-01-2015,05:00,1.12157,R,ugm-3,0.20,R,ugm-3,0.00,R,ugm-3
11-01-2015,06:00,1.12157,R,ugm-3,0.10,R,ugm-3,-0.10,R,ugm-3
11-01-2015,07:00,1.24530,R,ugm-3,0.10,R,ugm-3,-0.10,R,ugm-3
11-01-2015,08:00,0.93531,R,ugm-3,0.10,R,ugm-3,-0.10,R,ugm-3
11-01-2015,09:00,1.12157,R,ugm-3,0.20,R,ugm-3,-0.10,R,ugm-3
11-01-2015,10:00,1.30783,R,ugm-3,0.10,R,ugm-3,0.20,R,ugm-3
11-01-2015,11:00,1.49543,R,ugm-3,0.50,R,ugm-3,0.60,R,ugm-3
11-01-2015,12:00,1.68302,R,ugm-3,1.20,R,ugm-3,0.90,R,ugm-3
11-01-2015,13:00,2.18194,R,ugm-3,1.00,R,ugm-3,1.60,R,ugm-3
11-01-2015,14:00,2.86712,R,ugm-3,2.00,R,ugm-3,3.20,R,ugm-3
11-01-2015,15:00,4.79960,R,ugm-3,4.40,R,ugm-3,2.70,R,ugm-3
11-01-2015,16:00,3.61550,R,ugm-3,1.60,R,ugm-3,1.90,R,ugm-3
11-01-2015,17:00,3.67869,R,ugm-3,1.60,R,ugm-3,1.80,R,ugm-3
11-01-2015,18:00,4.55014,R,ugm-3,2.30,R,ugm-3,1.80,R,ugm-3
11-01-2015,19:00,7.04340,R,ugm-3,3.90,R,ugm-3,8.40,R,ugm-3
11-01-2015,20:00,7.29220,R,ugm-3,2.20,R,ugm-3,4.50,R,ugm-3
11-01-2015,21:00,6.73208,R,ugm-3,2.70,R,ugm-3,11.90,R,ugm-3
11-01-2015,22:00,5.11092,R,ugm-3,0.90,R,ugm-3,2.20,R,ugm-3
11-01-2015,23:00,5.17346,R,ugm-3,0.80,R,ugm-3,0.90,R,ugm-3
11-01-2015,24:00,2.92965,R,ugm-3,0.40,R,ugm-3,0.70,R,ugm-3
12-01-2015,01:00,2.15799,R,ugm-3,0.30,R,ugm-3,-0.10,R,ugm-3
12-01-2015,02:00,1.16281,R,ugm-3,0.00,R,ugm-3,0.00,R,ugm-3
12-01-2015,03:00,0.74771,R,ugm-3,0.10,R,ugm-3,-0.10,R,ugm-3
12-01-2015,04:00,0.93398,R,ugm-3,0.00,R,ugm-3,0.00,R,ugm-3
12-01-2015,05:00,1.18277,R,ugm-3,0.10,R,ugm-3,-0.10,R,ugm-3
12-01-2015,06:00,1.12090,R,ugm-3,0.20,R,ugm-3,0.00,R,ugm-3
12-01-2015,07:00,0.49759,R,ugm-3,0.00,R,ugm-3,0.00,R,ugm-3
12-01-2015,08:00,0.62265,R,ugm-3,0.30,R,ugm-3,-0.10,R,ugm-3
12-01-2015,09:00,0.62265,R,ugm-3,0.10,R,ugm-3,0.00,R,ugm-3
12-01-2015,10:00,0.80958,R,ugm-3,0.50,R,ugm-3,0.40,R,ugm-3
12-01-2015,11:00,1.24530,R,ugm-3,1.00,R,ugm-3,0.40,R,ugm-3
12-01-2015,12:00,1.24530,R,ugm-3,0.80,R,ugm-3,0.50,R,ugm-3
12-01-2015,13:00,0.99584,R,ugm-3,0.50,R,ugm-3,0.30,R,ugm-3
12-01-2015,14:00,1.43223,R,ugm-3,0.80,R,ugm-3,1.00,R,ugm-3
12-01-2015,15:00,3.17645,R,ugm-3,2.40,R,ugm-3,1.30,R,ugm-3
12-01-2015,16:00,4.29669,R,ugm-3,2.80,R,ugm-3,2.20,R,ugm-3
12-01-2015,17:00,3.86097,R,ugm-3,2.30,R,ugm-3,2.10,R,ugm-3
12-01-2015,18:00,3.79910,R,ugm-3,2.20,R,ugm-3,1.90,R,ugm-3
12-01-2015,19:00,2.92633,R,ugm-3,1.70,R,ugm-3,1.40,R,ugm-3
12-01-2015,20:00,2.36554,R,ugm-3,1.10,R,ugm-3,1.20,R,ugm-3
12-01-2015,21:00,2.98886,R,ugm-3,1.70,R,ugm-3,1.70,R,ugm-3
12-01-2015,22:00,3.48711,R,ugm-3,1.50,R,ugm-3,2.10,R,ugm-3
12-01-2015,23:00,2.74006,R,ugm-3,0.80,R,ugm-3,1.00,R,ugm-3
12-01-2015,24:00,1.36970,R,ugm-3,0.50,R,ugm-3,0.70,R,ugm-3
13-01-2015,01:00,0.25013,R,ugm-3,0.20,R,ugm-3,0.10,R,ugm-3
13-01-2015,02:00,0.66256,R,ugm-3,0.20,R,ugm-3,0.50,R,ugm-3
13-01-2015,03:00,0.99518,R,ugm-3,0.10,R,ugm-3,0.00,R,ugm-3
13-01-2015,04:00,0.99518,R,ugm-3,0.20,R,ugm-3,0.00,R,ugm-3
13-01-2015,05:00,0.62199,R,ugm-3,0.10,R,ugm-3,0.10,R,ugm-3
13-01-2015,06:00,0.18759,R,ugm-3,0.20,R,ugm-3,0.10,R,ugm-3
13-01-2015,07:00,0.06253,R,ugm-3,0.10,R,ugm-3,0.10,R,ugm-3
13-01-2015,08:00,0.18759,R,ugm-3,0.30,R,ugm-3,0.00,R,ugm-3
13-01-2015,09:00,0.25013,R,ugm-3,0.30,R,ugm-3,0.20,R,ugm-3
13-01-2015,10:00,0.12506,R,ugm-3,0.80,R,ugm-3,0.20,R,ugm-3
13-01-2015,11:00,0.24946,R,ugm-3,0.70,R,ugm-3,0.80,R,ugm-3
13-01-2015,12:00,0.55945,R,ugm-3,0.90,R,ugm-3,1.00,R,ugm-3
13-01-2015,13:00,0.49759,R,ugm-3,0.70,R,ugm-3,0.70,R,ugm-3
13-01-2015,14:00,1.30650,R,ugm-3,2.00,R,ugm-3,2.00,R,ugm-3
13-01-2015,15:00,1.99035,R,ugm-3,2.10,R,ugm-3,2.70,R,ugm-3
13-01-2015,16:00,2.36421,R,ugm-3,2.30,R,ugm-3,2.40,R,ugm-3
13-01-2015,17:00,4.04324,R,ugm-3,2.70,R,ugm-3,5.90,R,ugm-3
13-01-2015,18:00,3.98071,R,ugm-3,3.40,R,ugm-3,3.50,R,ugm-3
13-01-2015,19:00,3.91818,R,ugm-3,3.90,R,ugm-3,4.40,R,ugm-3
13-01-2015,20:00,4.41576,R,ugm-3,4.70,R,ugm-3,4.00,R,ugm-3
13-01-2015,21:00,2.48861,R,ugm-3,1.50,R,ugm-3,2.00,R,ugm-3
13-01-2015,22:00,3.23432,R,ugm-3,1.80,R,ugm-3,1.50,R,ugm-3
13-01-2015,23:00,2.92300,R,ugm-3,1.60,R,ugm-3,2.10,R,ugm-3
13-01-2015,24:00,2.48794,R,ugm-3,0.40,R,ugm-3,1.20,R,ugm-3
14-01-2015,01:00,1.82183,R,ugm-3,0.50,R,ugm-3,0.60,R,ugm-3
14-01-2015,02:00,1.32513,R,ugm-3,0.30,R,ugm-3,0.20,R,ugm-3
14-01-2015,03:00,1.18077,R,ugm-3,0.20,R,ugm-3,0.00,R,ugm-3
14-01-2015,04:00,0.99518,R,ugm-3,0.10,R,ugm-3,0.00,R,ugm-3
14-01-2015,05:00,1.05571,R,ugm-3,0.10,R,ugm-3,0.00,R,ugm-3
14-01-2015,06:00,1.55330,R,ugm-3,0.10,R,ugm-3,-0.10,R,ugm-3
14-01-2015,07:00,1.30517,R,ugm-3,0.20,R,ugm-3,0.00,R,ugm-3
14-01-2015,08:00,1.24264,R,ugm-3,0.50,R,ugm-3,0.20,R,ugm-3
14-01-2015,09:00,1.55264,R,ugm-3,1.50,R,ugm-3,1.50,R,ugm-3
14-01-2015,10:00,1.80210,R,ugm-3,1.10,R,ugm-3,1.40,R,ugm-3
14-01-2015,11:00,2.05022,R,ugm-3,1.60,R,ugm-3,1.60,R,ugm-3
14-01-2015,12:00,1.86396,R,ugm-3,1.10,R,ugm-3,0.80,R,ugm-3
14-01-2015,13:00,1.98769,R,ugm-3,1.20,R,ugm-3,1.20,R,ugm-3
14-01-2015,14:00,2.23649,R,ugm-3,1.20,R,ugm-3,1.00,R,ugm-3
14-01-2015,15:00,2.73341,R,ugm-3,0.80,R,ugm-3,0.60,R,ugm-3
14-01-2015,16:00,1.86396,R,ugm-3,0.90,R,ugm-3,0.20,R,ugm-3
14-01-2015,17:00,2.36155,R,ugm-3,0.70,R,ugm-3,0.30,R,ugm-3
14-01-2015,18:00,4.03858,R,ugm-3,0.70,R,ugm-3,1.30,R,ugm-3
14-01-2015,19:00,2.85781,R,ugm-3,2.10,R,ugm-3,1.20,R,ugm-3
14-01-2015,20:00,2.98220,R,ugm-3,4.00,R,ugm-3,2.10,R,ugm-3
14-01-2015,21:00,2.23715,R,ugm-3,0.40,R,ugm-3,0.10,R,ugm-3
14-01-2015,22:00,1.80210,R,ugm-3,0.50,R,ugm-3,0.20,R,ugm-3
14-01-2015,23:00,1.98836,R,ugm-3,0.50,R,ugm-3,0.80,R,ugm-3
14-01-2015,24:00,1.98836,R,ugm-3,0.60,R,ugm-3,0.40,R,ugm-3
15-01-2015,01:00,1.40673,R,ugm-3,0.20,R,ugm-3,0.20,R,ugm-3
15-01-2015,02:00,0.99252,R,ugm-3,0.20,R,ugm-3,0.00,R,ugm-3
15-01-2015,03:00,0.99252,R,ugm-3,0.10,R,ugm-3,0.00,R,ugm-3
15-01-2015,04:00,0.86878,R,ugm-3,0.10,R,ugm-3,0.00,R,ugm-3
15-01-2015,05:00,0.99252,R,ugm-3,0.10,R,ugm-3,-0.10,R,ugm-3
15-01-2015,06:00,0.99252,R,ugm-3,0.10,R,ugm-3,-0.10,R,ugm-3
15-01-2015,07:00,1.36504,R,ugm-3,0.10,R,ugm-3,0.00,R,ugm-3
15-01-2015,08:00,1.42757,R,ugm-3,0.20,R,ugm-3,0.10,R,ugm-3
15-01-2015,09:00,1.79943,R,ugm-3,0.50,R,ugm-3,0.80,R,ugm-3
15-01-2015,10:00,1.92450,R,ugm-3,1.20,R,ugm-3,0.70,R,ugm-3
15-01-2015,11:00,1.73757,R,ugm-3,0.60,R,ugm-3,1.40,R,ugm-3
15-01-2015,12:00,2.10943,R,ugm-3,1.10,R,ugm-3,1.10,R,ugm-3
15-01-2015,13:00,2.48262,R,ugm-3,0.60,R,ugm-3,1.10,R,ugm-3
15-01-2015,14:00,1.42757,R,ugm-3,0.90,R,ugm-3,0.90,R,ugm-3
15-01-2015,15:00,1.86130,R,ugm-3,1.10,R,ugm-3,1.50,R,ugm-3
15-01-2015,16:00,2.11009,R,ugm-3,1.80,R,ugm-3,1.90,R,ugm-3
15-01-2015,17:00,1.92383,R,ugm-3,1.20,R,ugm-3,1.40,R,ugm-3
15-01-2015,18:00,2.35822,R,ugm-3,1.80,R,ugm-3,1.60,R,ugm-3
15-01-2015,19:00,1.92383,R,ugm-3,1.20,R,ugm-3,0.70,R,ugm-3
15-01-2015,20:00,2.23383,R,ugm-3,1.10,R,ugm-3,1.40,R,ugm-3
15-01-2015,21:00,1.86197,R,ugm-3,0.80,R,ugm-3,0.70,R,ugm-3
15-01-2015,22:00,2.35889,R,ugm-3,1.70,R,ugm-3,1.40,R,ugm-3
15-01-2015,23:00,2.60702,R,ugm-3,1.10,R,ugm-3,1.40,R,ugm-3
15-01-2015,24:00,1.61317,R,ugm-3,0.60,R,ugm-3,1.10,R,ugm-3
16-01-2015,01:00,1.15749,R,ugm-3,0.20,R,ugm-3,0.10,R,ugm-3
16-01-2015,02:00,0.82665,R,ugm-3,0.10,R,ugm-3,0.00,R,ugm-3
16-01-2015,03:00,0.93065,R,ugm-3,0.10,R,ugm-3,0.00,R,ugm-3
16-01-2015,04:00,0.86878,R,ugm-3,0.10,R,ugm-3,0.10,R,ugm-3
16-01-2015,05:00,0.99252,R,ugm-3,0.00,R,ugm-3,0.10,R,ugm-3
16-01-2015,06:00,1.48744,R,ugm-3,0.20,R,ugm-3,0.10,R,ugm-3
16-01-2015,07:00,3.34808,R,ugm-3,0.00,R,ugm-3,0.00,R,ugm-3
16-01-2015,08:00,6.44736,R,ugm-3,0.30,R,ugm-3,0.30,R,ugm-3
16-01-2015,09:00,6.07550,R,ugm-3,0.80,R,ugm-3,0.30,R,ugm-3
16-01-2015,10:00,5.57991,R,ugm-3,1.80,R,ugm-3,2.20,R,ugm-3
16-01-2015,11:00,4.21620,R,ugm-3,3.30,R,ugm-3,2.00,R,ugm-3
16-01-2015,12:00,3.40928,R,ugm-3,1.90,R,ugm-3,1.50,R,ugm-3
16-01-2015,13:00,2.72809,R,ugm-3,1.80,R,ugm-3,1.80,R,ugm-3
16-01-2015,14:00,2.78995,R,ugm-3,2.00,R,ugm-3,2.20,R,ugm-3
16-01-2015,15:00,3.28621,R,ugm-3,1.50,R,ugm-3,1.40,R,ugm-3
16-01-2015,16:00,3.40994,R,ugm-3,2.60,R,ugm-3,2.70,R,ugm-3
16-01-2015,17:00,4.27740,R,ugm-3,3.70,R,ugm-3,4.70,R,ugm-3
16-01-2015,18:00,5.33178,R,ugm-3,3.10,R,ugm-3,4.00,R,ugm-3
16-01-2015,19:00,5.57991,R,ugm-3,4.20,R,ugm-3,3.60,R,ugm-3
16-01-2015,20:00,5.95177,R,ugm-3,2.80,R,ugm-3,2.70,R,ugm-3
16-01-2015,21:00,7.56427,R,ugm-3,4.40,R,ugm-3,4.00,R,ugm-3
16-01-2015,22:00,6.26243,R,ugm-3,2.00,R,ugm-3,2.30,R,ugm-3
16-01-2015,23:00,4.52619,R,ugm-3,1.00,R,ugm-3,1.50,R,ugm-3
16-01-2015,24:00,3.40994,R,ugm-3,1.30,R,ugm-3,1.10,R,ugm-3
17-01-2015,01:00,2.72476,R,ugm-3,0.70,R,ugm-3,0.90,R,ugm-3
17-01-2015,02:00,1.32247,R,ugm-3,0.30,R,ugm-3,0.20,R,ugm-3
17-01-2015,03:00,1.05239,R,ugm-3,0.20,R,ugm-3,0.10,R,ugm-3
17-01-2015,04:00,0.55679,R,ugm-3,0.10,R,ugm-3,0.00,R,ugm-3
17-01-2015,05:00,0.74239,R,ugm-3,0.20,R,ugm-3,0.10,R,ugm-3
17-01-2015,06:00,0.61866,R,ugm-3,0.10,R,ugm-3,-0.10,R,ugm-3
17-01-2015,07:00,1.30118,R,ugm-3,0.30,R,ugm-3,-0.10,R,ugm-3
17-01-2015,08:00,1.05305,R,ugm-3,0.20,R,ugm-3,0.10,R,ugm-3
17-01-2015,09:00,0.80426,R,ugm-3,0.30,R,ugm-3,0.20,R,ugm-3
17-01-2015,10:00,0.30933,R,ugm-3,0.40,R,ugm-3,0.30,R,ugm-3
17-01-2015,11:00,2.16730,R,ugm-3,2.40,R,ugm-3,2.70,R,ugm-3
17-01-2015,12:00,1.85864,R,ugm-3,1.10,R,ugm-3,1.30,R,ugm-3
17-01-2015,13:00,1.67304,R,ugm-3,1.20,R,ugm-3,1.20,R,ugm-3
17-01-2015,14:00,3.22035,R,ugm-3,3.70,R,ugm-3,2.60,R,ugm-3
17-01-2015,15:00,2.29170,R,ugm-3,1.40,R,ugm-3,3.00,R,ugm-3
17-01-2015,16:00,3.96341,R,ugm-3,2.50,R,ugm-3,4.70,R,ugm-3
17-01-2015,17:00,6.25578,R,ugm-3,4.70,R,ugm-3,6.20,R,ugm-3
17-01-2015,18:00,10.21852,R,ugm-3,7.10,R,ugm-3,7.80,R,ugm-3